| time (UTC) | temp F | wind direction | speed MPH | gust MPH | rain 1hr in | rain 24hr in | rain mn in | humidity % | barometer mb |
| 20260831094805 | 72 | 178 | 0.0 | 2.0 | 0.00 | 0.00 | 0.00 | 97 | 1019.9 |
| 20260831094305 | 71 | 178 | 0.0 | 0.0 | 0.00 | 0.00 | 0.00 | 97 | 1019.8 |
| 20260831092805 | 72 | 178 | 0.0 | 0.0 | 0.00 | 0.00 | 0.00 | 97 | 1019.5 |
| 20260831092306 | 72 | 178 | 0.0 | 0.0 | 0.00 | 0.00 | 0.00 | 97 | 1019.5 |
| 20260831091305 | 72 | 178 | 0.0 | 0.0 | 0.00 | 0.00 | 0.00 | 97 | 1019.5 |
| 20260831085805 | 71 | 178 | 0.0 | 0.0 | 0.00 | 0.00 | 0.00 | 97 | 1019.5 |
| 20260831085306 | 71 | 178 | 0.0 | 0.0 | 0.00 | 0.00 | 0.00 | 97 | 1019.6 |
| 20260831080305 | 72 | 178 | 0.0 | 0.0 | 0.00 | 0.00 | 0.00 | 96 | 1019.5 |
| 20260831075805 | 72 | 178 | 0.0 | 0.0 | 0.00 | 0.00 | 0.00 | 96 | 1019.4 |
| 20260831075307 | 72 | 178 | 0.0 | 0.0 | 0.00 | 0.00 | 0.00 | 96 | 1019.5 |
| 20260831074805 | 72 | 178 | 0.0 | 0.0 | 0.00 | 0.00 | 0.00 | 96 | 1019.4 |
| 20260831072805 | 72 | 178 | 0.0 | 0.0 | 0.00 | 0.00 | 0.00 | 96 | 1019.5 |
| 20260831072306 | 72 | 178 | 0.0 | 0.0 | 0.00 | 0.00 | 0.00 | 96 | 1019.4 |
| 20260831071805 | 72 | 178 | 0.0 | 0.0 | 0.00 | 0.00 | 0.00 | 96 | 1019.4 |
| 20260831070305 | 72 | 178 | 0.0 | 0.0 | 0.00 | 0.00 | 0.00 | 95 | 1019.6 |
| 20260831065805 | 72 | 178 | 0.0 | 0.0 | 0.00 | 0.00 | 0.00 | 95 | 1019.7 |
| 20260831065306 | 73 | 178 | 0.0 | 0.0 | 0.00 | 0.00 | 0.00 | 95 | 1019.6 |
| 20260831064804 | 73 | 178 | 0.0 | 0.0 | 0.00 | 0.00 | 0.00 | 95 | 1019.6 |
| 20260831063804 | 73 | 178 | 0.0 | 0.0 | 0.00 | 0.00 | 0.00 | 95 | 1019.5 |
| 20260831063304 | 73 | 178 | 0.0 | 0.0 | 0.00 | 0.00 | 0.00 | 95 | 1019.6 |
| 20260831061805 | 73 | 178 | 0.0 | 0.0 | 0.00 | 0.00 | 0.00 | 95 | 1019.7 |
| 20260831061305 | 73 | 178 | 0.0 | 0.0 | 0.00 | 0.00 | 0.00 | 95 | 1019.8 |
| 20260831060305 | 73 | 178 | 0.0 | 0.0 | 0.00 | 0.00 | 0.00 | 95 | 1019.9 |
| 20260831055306 | 73 | 178 | 0.0 | 2.0 | 0.00 | 0.00 | 0.00 | 94 | 1019.9 |
| 20260831054804 | 74 | 180 | 0.0 | 1.0 | 0.00 | 0.00 | 0.00 | 94 | 1019.9 |
| 20260831054304 | 74 | 180 | 0.0 | 0.0 | 0.00 | 0.00 | 0.00 | 94 | 1019.9 |
| 20260831053805 | 74 | 180 | 0.0 | 0.0 | 0.00 | 0.00 | 0.00 | 94 | 1020.0 |
| 20260831053305 | 74 | 180 | 0.0 | 0.0 | 0.00 | 0.00 | 0.00 | 94 | 1020.0 |
| 20260831052804 | 74 | 180 | 0.0 | 0.0 | 0.00 | 0.00 | 0.00 | 94 | 1020.1 |
| 20260831052307 | 74 | 180 | 0.0 | 0.0 | 0.00 | 0.00 | 0.00 | 94 | 1020.0 |
| 20260831050805 | 74 | 180 | 0.0 | 0.0 | 0.00 | 0.00 | 0.00 | 94 | 1019.8 |
| 20260831045804 | 74 | 180 | 0.0 | 0.0 | 0.00 | 0.00 | 0.00 | 93 | 1019.8 |
| 20260831045306 | 74 | 180 | 0.0 | 1.0 | 0.00 | 0.00 | 0.00 | 93 | 1019.7 |
| 20260831043805 | 75 | 180 | 0.0 | 0.0 | 0.00 | 0.00 | 0.00 | 91 | 1019.6 |
| 20260831035805 | 75 | 180 | 0.0 | 1.0 | 0.00 | 0.00 | 0.00 | 91 | 1019.9 |
| 20260831035307 | 75 | 180 | 0.0 | 1.0 | 0.00 | 0.00 | 0.00 | 92 | 1020.0 |
| 20260831033306 | 75 | 180 | 0.0 | 1.0 | 0.00 | 0.00 | 0.00 | 92 | 1019.9 |
| 20260831032805 | 75 | 180 | 0.0 | 1.0 | 0.00 | 0.00 | 0.00 | 93 | 1020.0 |
| 20260831032306 | 75 | 180 | 0.0 | 1.0 | 0.00 | 0.00 | 0.00 | 93 | 1020.1 |
| 20260831031306 | 75 | 180 | 0.0 | 0.0 | 0.00 | 0.00 | 0.00 | 94 | 1020.2 |
| 20260831030805 | 75 | 180 | 0.0 | 1.0 | 0.00 | 0.00 | 0.00 | 94 | 1020.2 |
| 20260831030304 | 75 | 180 | 0.0 | 1.0 | 0.00 | 0.00 | 0.00 | 93 | 1020.2 |
| 20260831025805 | 75 | 180 | 0.0 | 1.0 | 0.00 | 0.00 | 0.00 | 93 | 1020.3 |
| 20260831025306 | 76 | 180 | 0.0 | 1.0 | 0.00 | 0.00 | 0.00 | 93 | 1020.4 |
| 20260831023805 | 76 | 180 | 0.0 | 1.0 | 0.00 | 0.00 | 0.00 | 92 | 1020.3 |
| 20260831023305 | 76 | 180 | 0.0 | 1.0 | 0.00 | 0.00 | 0.00 | 91 | 1020.3 |
| 20260831022805 | 77 | 180 | 0.0 | 1.0 | 0.00 | 0.00 | 0.00 | 90 | 1020.3 |
| 20260831022306 | 77 | 175 | 0.0 | 1.0 | 0.00 | 0.00 | 0.00 | 89 | 1020.2 |
| 20260831021804 | 78 | 175 | 0.0 | 2.0 | 0.00 | 0.00 | 0.00 | 89 | 1020.1 |
| 20260831021305 | 77 | 175 | 0.0 | 2.0 | 0.00 | 0.00 | 0.00 | 89 | 1020.2 |
| 20260831020806 | 77 | 174 | 0.0 | 2.0 | 0.00 | 0.00 | 0.00 | 91 | 1020.1 |
| 20260831020306 | 76 | 174 | 1.0 | 2.0 | 0.00 | 0.00 | 0.00 | 93 | 1020.1 |
| 20260831015306 | 76 | 182 | 0.0 | 1.0 | 0.00 | 0.00 | 0.00 | 93 | 1020.2 |
| 20260831014805 | 76 | 182 | 0.0 | 5.0 | 0.00 | 0.00 | 0.00 | 94 | 1020.2 |
| 20260831014304 | 76 | 182 | 0.0 | 5.0 | 0.00 | 0.00 | 0.00 | 94 | 1020.3 |
| 20260831013805 | 75 | 128 | 0.0 | 0.0 | 0.00 | 0.00 | 0.00 | 94 | 1020.4 |
| 20260831010805 | 75 | 128 | 0.0 | 0.0 | 0.00 | 0.00 | 0.00 | 94 | 1020.1 |
| 20260831005306 | 76 | 128 | 0.0 | 0.0 | 0.00 | 0.00 | 0.00 | 93 | 1020.0 |
| 20260831004805 | 76 | 128 | 0.0 | 0.0 | 0.00 | 0.00 | 0.00 | 93 | 1020.0 |
| 20260831003804 | 76 | 128 | 0.0 | 0.0 | 0.00 | 0.00 | 0.00 | 92 | 1019.9 |
| 20260831003304 | 76 | 128 | 0.0 | 1.0 | 0.00 | 0.00 | 0.00 | 92 | 1019.8 |
| 20260831002805 | 76 | 128 | 0.0 | 1.0 | 0.00 | 0.00 | 0.00 | 92 | 1019.8 |
| 20260831002306 | 76 | 128 | 0.0 | 1.0 | 0.00 | 0.00 | 0.00 | 92 | 1019.8 |
| 20260831001305 | 76 | 125 | 0.0 | 0.0 | 0.00 | 0.00 | 0.00 | 92 | 1019.6 |
| 20260830235306 | 77 | 125 | 0.0 | 0.0 | 0.00 | 0.00 | 0.00 | 90 | 1019.3 |
| 20260830234305 | 78 | 125 | 0.0 | 0.0 | 0.00 | 0.00 | 0.00 | 89 | 1019.3 |
| 20260830232804 | 78 | 125 | 1.0 | 2.0 | 0.00 | 0.00 | 0.00 | 88 | 1019.4 |
| 20260830231806 | 79 | 125 | 0.0 | 2.0 | 0.00 | 0.00 | 0.00 | 87 | 1019.5 |
| 20260830231305 | 79 | 125 | 0.0 | 2.0 | 0.00 | 0.00 | 0.00 | 87 | 1019.6 |
| 20260830225804 | 81 | 125 | 0.0 | 3.0 | 0.00 | 0.00 | 0.00 | 82 | 1019.6 |
| 20260830225306 | 81 | 125 | 1.0 | 3.0 | 0.00 | 0.00 | 0.00 | 82 | 1019.5 |
| 20260830224806 | 81 | 125 | 2.0 | 3.0 | 0.00 | 0.00 | 0.00 | 81 | 1019.6 |
| 20260830224304 | 82 | 127 | 1.0 | 3.0 | 0.00 | 0.00 | 0.00 | 81 | 1019.5 |
| 20260830223304 | 81 | 144 | 1.0 | 2.0 | 0.00 | 0.00 | 0.00 | 81 | 1019.6 |
| 20260830222804 | 81 | 144 | 1.0 | 3.0 | 0.00 | 0.00 | 0.00 | 81 | 1019.6 |
| 20260830222306 | 81 | 145 | 0.0 | 3.0 | 0.00 | 0.00 | 0.00 | 81 | 1019.5 |
| 20260830221806 | 81 | 82 | 0.0 | 3.0 | 0.00 | 0.00 | 0.00 | 82 | 1019.5 |
| 20260830220804 | 81 | 77 | 1.0 | 3.0 | 0.00 | 0.00 | 0.00 | 80 | 1019.5 |
| 20260830215805 | 81 | 61 | 2.0 | 3.0 | 0.00 | 0.00 | 0.00 | 80 | 1019.3 |
| 20260830214804 | 82 | 76 | 2.0 | 7.0 | 0.00 | 0.00 | 0.00 | 78 | 1019.4 |
| 20260830214304 | 82 | 58 | 4.0 | 7.0 | 0.00 | 0.00 | 0.00 | 77 | 1019.4 |
| 20260830213806 | 82 | 326 | 0.0 | 2.0 | 0.00 | 0.00 | 0.00 | 77 | 1019.3 |
| 20260830213305 | 82 | 304 | 0.0 | 1.0 | 0.00 | 0.00 | 0.00 | 77 | 1019.3 |
| 20260830212805 | 83 | 304 | 0.0 | 3.0 | 0.00 | 0.00 | 0.00 | 75 | 1019.4 |
| 20260830211805 | 84 | 302 | 2.0 | 3.0 | 0.00 | 0.00 | 0.00 | 72 | 1019.3 |
| 20260830205804 | 84 | 300 | 1.0 | 3.0 | 0.00 | 0.00 | 0.00 | 70 | 1019.5 |
| 20260830204804 | 86 | 303 | 2.0 | 5.0 | 0.00 | 0.00 | 0.00 | 66 | 1019.4 |
| 20260830204304 | 86 | 183 | 1.0 | 5.0 | 0.00 | 0.00 | 0.00 | 64 | 1019.4 |
| 20260830202306 | 85 | 319 | 2.0 | 7.0 | 0.00 | 0.00 | 0.00 | 68 | 1019.5 |
| 20260830201804 | 86 | 206 | 2.0 | 7.0 | 0.00 | 0.00 | 0.00 | 66 | 1019.5 |
| 20260830200804 | 88 | 272 | 2.0 | 9.0 | 0.00 | 0.00 | 0.00 | 64 | 1019.4 |
| 20260830200304 | 88 | 230 | 4.0 | 9.0 | 0.00 | 0.00 | 0.00 | 65 | 1019.5 |
| 20260830195804 | 86 | 333 | 2.0 | 5.0 | 0.00 | 0.00 | 0.00 | 65 | 1019.5 |
| 20260830195305 | 88 | 239 | 2.0 | 5.0 | 0.00 | 0.00 | 0.00 | 64 | 1019.6 |
| 20260830194805 | 87 | 270 | 2.0 | 5.0 | 0.00 | 0.00 | 0.00 | 66 | 1019.7 |
| 20260830194305 | 88 | 73 | 2.0 | 6.0 | 0.00 | 0.00 | 0.00 | 66 | 1019.8 |
| 20260830193304 | 86 | 229 | 2.0 | 7.0 | 0.00 | 0.00 | 0.00 | 64 | 1019.9 |
| 20260830191805 | 87 | 176 | 4.0 | 10.0 | 0.00 | 0.00 | 0.00 | 64 | 1020.2 |
| 20260830191306 | 87 | 164 | 3.0 | 10.0 | 0.00 | 0.00 | 0.00 | 65 | 1020.3 |
| 20260830190804 | 87 | 216 | 4.0 | 10.0 | 0.00 | 0.00 | 0.00 | 65 | 1020.5 |
| 20260830185804 | 86 | 188 | 2.0 | 12.0 | 0.00 | 0.00 | 0.00 | 66 | 1020.7 |
| 20260830185306 | 85 | 228 | 5.0 | 12.0 | 0.00 | 0.00 | 0.00 | 68 | 1020.8 |
| 20260830182805 | 86 | 206 | 3.0 | 9.0 | 0.00 | 0.00 | 0.00 | 67 | 1021.1 |
| 20260830181306 | 83 | 182 | 4.0 | 9.0 | 0.00 | 0.00 | 0.00 | 71 | 1021.2 |
| 20260830174306 | 84 | 230 | 4.0 | 10.0 | 0.00 | 0.00 | 0.00 | 69 | 1021.5 |
| 20260830172805 | 86 | 203 | 3.0 | 14.0 | 0.00 | 0.00 | 0.00 | 67 | 1021.6 |
| 20260830172306 | 85 | 188 | 7.0 | 14.0 | 0.00 | 0.00 | 0.00 | 67 | 1021.7 |
| 20260830171806 | 85 | 197 | 7.0 | 17.0 | 0.00 | 0.00 | 0.00 | 68 | 1021.8 |
| 20260830171304 | 85 | 210 | 7.0 | 17.0 | 0.00 | 0.00 | 0.00 | 66 | 1021.9 |
| 20260830170806 | 84 | 160 | 5.0 | 13.0 | 0.00 | 0.00 | 0.00 | 71 | 1021.9 |
| 20260830170304 | 84 | 160 | 7.0 | 12.0 | 0.00 | 0.00 | 0.00 | 72 | 1021.8 |
| 20260830165306 | 84 | 224 | 5.0 | 15.0 | 0.00 | 0.00 | 0.00 | 71 | 1021.9 |
| 20260830164804 | 84 | 180 | 3.0 | 15.0 | 0.00 | 0.00 | 0.00 | 71 | 1022.0 |
| 20260830164305 | 84 | 162 | 6.0 | 15.0 | 0.00 | 0.00 | 0.00 | 72 | 1022.0 |
| 20260830163804 | 82 | 187 | 7.0 | 15.0 | 0.00 | 0.00 | 0.00 | 74 | 1022.1 |
| 20260830162805 | 83 | 199 | 6.0 | 12.0 | 0.00 | 0.00 | 0.00 | 73 | 1022.3 |
| 20260830162306 | 83 | 236 | 4.0 | 12.0 | 0.00 | 0.00 | 0.00 | 72 | 1022.5 |
| 20260830161304 | 82 | 211 | 6.0 | 14.0 | 0.00 | 0.00 | 0.00 | 74 | 1022.7 |
| 20260830160809 | 82 | 230 | 3.0 | 15.0 | 0.00 | 0.00 | 0.00 | 74 | 1022.7 |
| 20260830155805 | 81 | 167 | 4.0 | 14.0 | 0.00 | 0.00 | 0.00 | 77 | 1022.8 |
| 20260830154304 | 80 | 150 | 3.0 | 16.0 | 0.00 | 0.00 | 0.00 | 79 | 1022.8 |
| 20260830152306 | 79 | 165 | 6.0 | 12.0 | 0.00 | 0.00 | 0.00 | 81 | 1022.8 |
| 20260830151804 | 78 | 268 | 5.0 | 10.0 | 0.00 | 0.00 | 0.00 | 82 | 1022.8 |
| 20260830150805 | 78 | 154 | 3.0 | 7.0 | 0.00 | 0.00 | 0.00 | 84 | 1022.7 |
| 20260830150305 | 78 | 246 | 3.0 | 10.0 | 0.00 | 0.00 | 0.00 | 83 | 1022.7 |
| 20260830145804 | 78 | 168 | 5.0 | 10.0 | 0.00 | 0.00 | 0.00 | 84 | 1022.8 |
| 20260830144304 | 77 | 138 | 6.0 | 9.0 | 0.00 | 0.00 | 0.00 | 85 | 1022.8 |
| 20260830143304 | 77 | 149 | 4.0 | 10.0 | 0.00 | 0.00 | 0.00 | 85 | 1022.9 |
| 20260830142805 | 77 | 155 | 5.0 | 10.0 | 0.00 | 0.00 | 0.00 | 85 | 1022.9 |
| 20260830141304 | 77 | 204 | 5.0 | 10.0 | 0.00 | 0.00 | 0.00 | 86 | 1022.9 |
| 20260830135805 | 76 | 134 | 1.0 | 8.0 | 0.00 | 0.00 | 0.00 | 86 | 1023.0 |
| 20260830134805 | 75 | 179 | 4.0 | 12.0 | 0.00 | 0.00 | 0.00 | 87 | 1022.9 |
| 20260830134305 | 75 | 150 | 2.0 | 12.0 | 0.00 | 0.00 | 0.00 | 87 | 1023.1 |
| 20260830133305 | 75 | 162 | 5.0 | 10.0 | 0.00 | 0.00 | 0.00 | 88 | 1023.1 |
| 20260830131304 | 74 | 155 | 5.0 | 14.0 | 0.00 | 0.00 | 0.00 | 90 | 1023.4 |
| 20260830125806 | 73 | 158 | 3.0 | 12.0 | 0.00 | 0.00 | 0.00 | 91 | 1023.4 |
| 20260830125306 | 73 | 171 | 4.0 | 12.0 | 0.00 | 0.00 | 0.00 | 91 | 1023.5 |
| 20260830123806 | 73 | 179 | 3.0 | 8.0 | 0.00 | 0.00 | 0.00 | 93 | 1023.7 |
| 20260830123304 | 73 | 194 | 4.0 | 12.0 | 0.00 | 0.00 | 0.00 | 93 | 1023.7 |
| 20260830122805 | 72 | 162 | 3.0 | 12.0 | 0.00 | 0.00 | 0.00 | 94 | 1023.7 |
| 20260830121306 | 72 | 146 | 2.0 | 6.0 | 0.00 | 0.00 | 0.00 | 95 | 1023.7 |
| 20260830113804 | 67 | 297 | 0.0 | 0.0 | 0.00 | 0.00 | 0.00 | 95 | 1023.7 |
| 20260830113304 | 67 | 297 | 0.0 | 0.0 | 0.00 | 0.00 | 0.00 | 95 | 1023.6 |
| 20260830112804 | 67 | 297 | 0.0 | 0.0 | 0.00 | 0.00 | 0.00 | 95 | 1023.7 |
| 20260830111306 | 66 | 297 | 0.0 | 0.0 | 0.00 | 0.00 | 0.00 | 95 | 1023.8 |
| 20260830110804 | 66 | 297 | 0.0 | 0.0 | 0.00 | 0.00 | 0.00 | 95 | 1023.8 |
| 20260830104304 | 65 | 297 | 0.0 | 0.0 | 0.00 | 0.00 | 0.00 | 95 | 1023.6 |
| 20260830103805 | 65 | 297 | 0.0 | 0.0 | 0.00 | 0.00 | 0.00 | 95 | 1023.5 |
| 20260830103305 | 65 | 297 | 0.0 | 0.0 | 0.00 | 0.00 | 0.00 | 95 | 1023.5 |
| 20260830102804 | 65 | 297 | 0.0 | 0.0 | 0.00 | 0.00 | 0.00 | 95 | 1023.6 |
| 20260830102307 | 65 | 297 | 0.0 | 0.0 | 0.00 | 0.00 | 0.00 | 95 | 1023.6 |
| 20260830100805 | 65 | 297 | 0.0 | 0.0 | 0.00 | 0.00 | 0.00 | 95 | 1023.5 |
| 20260830095306 | 65 | 297 | 0.0 | 1.0 | 0.00 | 0.00 | 0.00 | 95 | 1023.6 |